Flag for Guam Weather past 2 weeks in Hagåtña, Guam

Now
87 °F

Scattered clouds.


Feels Like: 98 °F
Forecast: 80 / 83 °F
Wind: 16 mph from Northeast

Location: Guam International Airport

Current Time: Jul 4, 2015 at 3:17:01 PM

Latest Report: Jul 4, 2015 at 2:54 PM


Visibility: 10 mi

Pressure: 29.51 "Hg

Humidity: 69%

Dew point: 76 °F

Location of HagåtñaLocation

Historic Weather in Hagåtña — Graph

°F

Hagåtña temperature yesterday

Maximum temperature yesterday: 85 °F (at 12:54 PM)
Minimum temperature yesterday: 79 °F (at 4:02 PM)
Average temperature yesterday: 81 °F

Past Weeks' High & Low Weather Summary

 TemperatureHumidityPressure
High90 °F (Jul 1, 1:54 PM)100% (Jul 4, 1:44 AM)29.92 "Hg (Jul 4, 1:44 AM)
Low77 °F (Jun 21, 3:54 AM)57% (Jul 1, 1:54 PM)29.53 "Hg (Jul 4, 1:54 PM)
Average83 °F81%29.80 "Hg
* Reported Jun 19 1:54 PM — Jul 4 1:54 PM, Hagåtña, Weather by CustomWeather, © 2015

Note: Actual official high and low records may vary slightly from our data, if they occured in-between our weather recording intervals... More about our weather records

Advertising

Hagåtña weather history for previous 24 hours

 ConditionsComfort  
Time TempWeatherWind HumidityBarometerVisibility
1:54 PM
Sat, Jul 4
87 °FBroken clouds.20 mph72%29.53 "Hg10 mi
1:32 PM88 °FBroken clouds.21 mph70%29.55 "Hg10 mi
12:54 PM87 °FScattered clouds.22 mph75%29.53 "Hg10 mi
12:45 PM86 °FBroken clouds.25 mph79%29.56 "Hg10 mi
11:54 AM84 °FLight rain. Broken clouds.18 mph88%29.55 "Hg7 mi
11:44 AM82 °FHeavy rain. Fog.18 mph89%29.58 "Hg1 mi
10:54 AM84 °FLight rain. Broken clouds.15 mph88%29.56 "Hg7 mi
10:46 AM82 °FRain. Fog.15 mph89%29.59 "Hg6 mi
10:09 AM86 °FBroken clouds.17 mph75%29.59 "Hg10 mi
9:54 AM86 °FBroken clouds.22 mph75%29.56 "Hg10 mi
9:40 AM84 °FBroken clouds.18 mph84%29.58 "Hg10 mi
8:54 AM85 °FScattered clouds.18 mph83%29.56 "Hg10 mi
8:24 AM82 °FBroken clouds.17 mph89%29.60 "Hg10 mi
7:54 AM82 °FScattered clouds.16 mph88%29.57 "Hg10 mi
7:26 AM82 °FPassing clouds.15 mph89%29.59 "Hg10 mi
6:54 AM79 °FLight rain. Fog.17 mph97%29.56 "Hg3 mi
6:42 AM81 °FLight rain. Fog.14 mph89%29.58 "Hg6 mi
6:11 AM81 °FScattered clouds.18 mph89%29.58 "Hg10 mi
5:54 AM80 °FPartly cloudy.13 mph94%29.55 "Hg10 mi
5:40 AM81 °FPartly cloudy.12 mph94%29.57 "Hg8 mi
4:54 AM80 °FPartly cloudy.13 mph94%29.54 "Hg10 mi
4:47 AM81 °FPartly cloudy.14 mph94%29.56 "Hg10 mi
3:54 AM80 °FLight rain. Fog.20 mph94%29.54 "Hg5 mi
3:33 AM81 °FLight rain. Fog.16 mph94%29.56 "Hg5 mi
2:54 AM80 °FClear.13 mph90%29.54 "Hg10 mi
2:39 AM81 °FPassing clouds.14 mph94%29.58 "Hg10 mi
2:14 AM81 °FOvercast.13 mph89%29.59 "Hg10 mi
1:54 AM80 °FPartly cloudy.13 mph94%29.57 "Hg10 mi
1:44 AM79 °FPartly cloudy.12 mph100%29.59 "Hg10 mi
12:54 AM79 °FPartly cloudy.16 mph90%29.59 "Hg10 mi
11:54 PM
Fri, Jul 3
81 °FPassing clouds.9 mph91%29.60 "Hg10 mi
10:54 PM81 °FLight rain. Passing clouds.16 mph88%29.61 "Hg10 mi
10:07 PM81 °FPartly cloudy.21 mph94%29.64 "Hg10 mi
9:54 PM80 °FLight rain. Fog.14 mph94%29.62 "Hg6 mi
8:54 PM81 °FPassing clouds.17 mph88%29.60 "Hg10 mi
8:40 PM81 °FPassing clouds.18 mph94%29.63 "Hg10 mi
8:09 PM81 °FLight rain. Fog.15 mph94%29.61 "Hg5 mi
7:54 PM80 °FHeavy rain. Fog.20 mph90%29.59 "Hg2 mi
6:54 PM80 °FPartly cloudy.9 mph96%29.59 "Hg7 mi
6:19 PM81 °FLight rain. Fog.15 mph94%29.61 "Hg5 mi
5:54 PM81 °FMostly cloudy.14 mph91%29.57 "Hg10 mi
5:35 PM81 °FLight rain. Fog.16 mph94%29.59 "Hg6 mi
4:54 PM81 °FBroken clouds.15 mph91%29.57 "Hg10 mi
4:02 PM79 °FLight rain. Fog.18 mph94%29.61 "Hg6 mi
3:37 PM82 °FPartly sunny.21 mph89%29.61 "Hg10 mi
3:05 PM81 °FLight rain. Fog.23 mph94%29.61 "Hg4 mi
3:02 PM81 °FLight rain. Fog.21 mph94%29.61 "Hg2 mi
Weather by CustomWeather, © 2015

See weather overviewHow to use our weather pages